Weather History for Alturas, CA

Change the Weather History Date:

Wednesday, March 19, 2014

  Actual Average Record
Temperature  
Mean Temperature 39 °F 39 °F  
Max Temperature 61 °F 53 °F 80 °F (1960)
Min Temperature 16 °F 25 °F -3 °F (1917)
Degree Days  
Heating Degree Days 26 26  
Month to date heating degree days 435 517  
Since 1 July heating degree days 5200 5384  
Cooling Degree Days 0 0  
Month to date cooling degree days 0 0  
Year to date cooling degree days 0 0  
Moisture  
Dew Point 15 °F    
Average Humidity 48    
Maximum Humidity 84    
Minimum Humidity 12    
Precipitation  
Precipitation 0.00 in 0.04 in 0.60 in (1946)
Month to date precipitation 1.25 0.89  
Year to date precipitation 2.85 3.99  
Sea Level Pressure  
Sea Level Pressure 30.12 in    
Wind  
Wind Speed 5 mph (WNW)    
Max Wind Speed 17 mph    
Max Gust Speed 21 mph    
Visibility 10 miles    
Events      
T = Trace of Precipitation, MM = Missing Value Source: NWS Daily Summary

Daily Weather History Graph

Daily Weather History Graph

Search for Another Location

Airport:

Trip Planner

Search our weather history database for the weather conditions in past years. The results will help you decide how hot, cold, wet, or windy it might be!

Date:

Astronomy

Mar. 19, 2014 Rise Set
Actual Time 7:07 AM PDT 7:13 PM PDT
Civil Twilight 6:39 AM PDT 7:41 PM PDT
Nautical Twilight 6:07 AM PDT 8:13 PM PDT
Astronomical Twilight 5:34 AM PDT 8:46 PM PDT
Moon 10:39 PM PDT (3/19) 8:33 AM PDT (3/19)
Length of Visible Light 13h 01m
Length of Day
12h 06m
Waning Gibbous, 90% of the Moon is Illuminated
Mar 19
Waning Gibbous
Mar 23
Last Quarter
Mar 30
New
Apr 7
First Quarter
Apr 15
Full

Hourly Weather History & Observations

Time (PDT) Temp. Windchill Dew Point Humidity Pressure Visibility Wind Dir Wind Speed Gust Speed Precip Events Conditions
12:55 AM 25.0 °F - 15.1 °F 66% 30.14 in 7.0 mi Calm Calm - N/A   Clear
1:55 AM 21.9 °F 14.5 °F 14.0 °F 72% 30.14 in 8.0 mi NNW 5.8 mph - N/A   Clear
2:55 AM 23.0 °F 14.7 °F 15.1 °F 72% 30.11 in 10.0 mi ESE 6.9 mph - N/A   Clear
3:55 AM 19.9 °F - 14.0 °F 78% 30.12 in 10.0 mi Calm Calm - N/A   Clear
4:55 AM 19.9 °F 14.9 °F 15.1 °F 81% 30.12 in 10.0 mi SSE 3.5 mph - N/A   Clear
5:55 AM 18.0 °F 12.7 °F 12.0 °F 78% 30.11 in 10.0 mi NNE 3.5 mph - N/A   Clear
6:55 AM 17.1 °F - 12.0 °F 81% 30.13 in 10.0 mi North - - N/A   Clear
7:55 AM 21.9 °F - 16.0 °F 78% 30.17 in 8.0 mi Calm Calm - N/A   Clear
8:55 AM 30.9 °F - 19.0 °F 61% 30.18 in 10.0 mi Calm Calm - N/A   Clear
9:55 AM 41.0 °F - 16.0 °F 36% 30.18 in 10.0 mi Calm Calm - N/A   Clear
10:55 AM 46.9 °F - 14.0 °F 27% 30.17 in 10.0 mi Variable 3.5 mph - N/A   Clear
11:55 AM 50.0 °F - 12.0 °F 22% 30.14 in 10.0 mi Variable 3.5 mph - N/A   Clear
12:55 PM 54.0 °F - 12.9 °F 20% 30.12 in 10.0 mi Calm Calm - N/A   Clear
1:55 PM 57.0 °F - 14.0 °F 18% 30.11 in 10.0 mi Variable 5.8 mph - N/A   Clear
2:55 PM 60.1 °F - 12.9 °F 16% 30.08 in 10.0 mi WSW 12.7 mph 17.3 mph N/A   Clear
3:55 PM 59.0 °F - 10.9 °F 15% 30.09 in 10.0 mi WNW 9.2 mph - N/A   Clear
4:55 PM 60.1 °F - 9.0 °F 13% 30.07 in 10.0 mi WNW 9.2 mph 17.3 mph N/A   Clear
5:55 PM 59.0 °F - 12.9 °F 16% 30.07 in 10.0 mi NW 11.5 mph - N/A   Clear
6:55 PM 53.1 °F - 16.0 °F 23% 30.10 in 10.0 mi West 5.8 mph - N/A   Clear
7:55 PM 46.0 °F 42.5 °F 18.0 °F 33% 30.12 in 10.0 mi WSW 6.9 mph - N/A   Clear
8:55 PM 42.1 °F 38.4 °F 19.0 °F 40% 30.11 in 10.0 mi West 5.8 mph - N/A   Clear
9:55 PM 39.0 °F 36.8 °F 19.9 °F 46% 30.10 in 10.0 mi North 3.5 mph - N/A   Clear
10:55 PM 37.9 °F - 21.0 °F 51% 30.11 in 8.0 mi Calm Calm - N/A   Clear
11:55 PM 33.1 °F 28.7 °F 19.9 °F 59% 30.13 in 6.0 mi SE 4.6 mph - N/A   Haze